When you browse on this site, cookies collect data to enhance your experience and personalize the content and advertising you see.
Visit our Privacy Policy to learn more. By continuing to use the site, you agree to this use of cookies and data.
  • En España
  • Lista de países
  • Para 7 días
  • Temperatura del agua
  • El tiempo en el mapa
  • Informadores
  • user-avatar
    Iniciar sesión

    Tiempo cada hora Mendoza

    Hoy, 21 Agosto, Miércoles

    Tiempo Temperatura Precipitaciones Viento Presión Humedad
    00:00 +10°C° 0 mm 1 mps 700 mmHg 62%
    01:00 +8°C° 0 mm 0 mps 700 mmHg 64%
    02:00 +9°C° 0 mm 1 mps 700 mmHg 64%
    03:00 +8°C° 0 mm 1 mps 700 mmHg 63%
    04:00 +8°C° 0 mm 1 mps 699 mmHg 63%
    05:00 +9°C° 0 mm 1 mps 699 mmHg 61%
    06:00 +9°C° 0 mm 1 mps 700 mmHg 59%
    07:00 +8°C° 0 mm 2 mps 700 mmHg 58%
    08:00 +10°C° 0 mm 2 mps 700 mmHg 52%
    09:00 +13°C° 0 mm 2 mps 700 mmHg 47%
    10:00 +14°C° 0 mm 2 mps 700 mmHg 42%
    11:00 +15°C° 0 mm 2 mps 699 mmHg 39%
    12:00 +17°C° 0 mm 2 mps 699 mmHg 37%
    13:00 +18°C° 0 mm 2 mps 699 mmHg 34%
    14:00 +18°C° 0 mm 2 mps 699 mmHg 34%
    15:00 +19°C° 0 mm 1 mps 699 mmHg 34%
    16:00 +19°C° 0 mm 1 mps 699 mmHg 34%
    17:00 +18°C° 0 mm 1 mps 699 mmHg 37%
    18:00 +16°C° 0 mm 1 mps 700 mmHg 40%
    19:00 +15°C° 0 mm 2 mps 701 mmHg 44%
    20:00 +14°C° 0 mm 2 mps 701 mmHg 46%
    21:00 +14°C° 0 mm 2 mps 702 mmHg 48%
    22:00 +13°C° 0 mm 2 mps 702 mmHg 50%
    23:00 +13°C° 0 mm 2 mps 702 mmHg 50%

    Mañana, 22 Agosto, Jueves

    Tiempo Temperatura Precipitaciones Viento Presión Humedad
    00:00 +13°C° 0 mm 2 mps 703 mmHg 51%
    01:00 +12°C° 0 mm 2 mps 703 mmHg 51%
    02:00 +12°C° 0 mm 2 mps 703 mmHg 53%
    03:00 +10°C° 0 mm 2 mps 704 mmHg 55%
    04:00 +10°C° 0 mm 2 mps 704 mmHg 57%
    05:00 +11°C° 0 mm 1 mps 705 mmHg 57%
    06:00 +11°C° 0 mm 1 mps 705 mmHg 57%
    07:00 +11°C° 0 mm 1 mps 706 mmHg 57%
    08:00 +13°C° 0 mm 1 mps 706 mmHg 51%
    09:00 +15°C° 0 mm 2 mps 706 mmHg 46%
    10:00 +16°C° 0 mm 2 mps 706 mmHg 41%
    11:00 +18°C° 0 mm 3 mps 705 mmHg 38%
    12:00 +19°C° 0 mm 3 mps 705 mmHg 35%
    13:00 +20°C° 0 mm 4 mps 704 mmHg 33%
    14:00 +20°C° 0 mm 4 mps 704 mmHg 32%
    15:00 +20°C° 0 mm 4 mps 704 mmHg 31%
    16:00 +20°C° 0 mm 4 mps 703 mmHg 31%
    17:00 +19°C° 0 mm 4 mps 703 mmHg 34%
    18:00 +18°C° 0 mm 3 mps 703 mmHg 37%
    19:00 +16°C° 0 mm 2 mps 703 mmHg 40%
    20:00 +15°C° 0 mm 2 mps 702 mmHg 42%
    21:00 +14°C° 0 mm 1 mps 702 mmHg 45%
    22:00 +12°C° 0 mm 0 mps 702 mmHg 47%
    23:00 +12°C° 0 mm 0 mps 702 mmHg 48%

    Pasado mañana, 23 Agosto, Viernes

    Tiempo Temperatura Precipitaciones Viento Presión Humedad
    00:00 +12°C° 0 mm 0 mps 701 mmHg 49%
    01:00 +11°C° 0 mm 0 mps 701 mmHg 50%
    02:00 +12°C° 0 mm 1 mps 700 mmHg 50%
    03:00 +11°C° 0 mm 1 mps 700 mmHg 50%
    04:00 +11°C° 0 mm 1 mps 699 mmHg 51%
    05:00 +12°C° 0 mm 1 mps 699 mmHg 50%
    06:00 +12°C° 0 mm 1 mps 700 mmHg 49%
    07:00 +13°C° 0 mm 1 mps 700 mmHg 48%
    08:00 +14°C° 0 mm 1 mps 700 mmHg 43%
    09:00 +16°C° 0 mm 1 mps 700 mmHg 38%
    10:00 +18°C° 0 mm 2 mps 700 mmHg 34%
    11:00 +19°C° 0 mm 2 mps 699 mmHg 32%
    12:00 +20°C° 0 mm 2 mps 699 mmHg 29%
    13:00 +23°C° 0 mm 2 mps 698 mmHg 27%
    14:00 +23°C° 0 mm 2 mps 698 mmHg 27%
    15:00 +23°C° 0 mm 1 mps 698 mmHg 27%
    16:00 +23°C° 0 mm 1 mps 697 mmHg 27%
    17:00 +21°C° 0 mm 1 mps 698 mmHg 30%
    18:00 +20°C° 0 mm 1 mps 698 mmHg 34%
    19:00 +18°C° 0 mm 1 mps 698 mmHg 37%
    20:00 +16°C° 0 mm 1 mps 698 mmHg 42%
    21:00 +15°C° 0 mm 1 mps 698 mmHg 46%
    22:00 +14°C° 0 mm 1 mps 698 mmHg 51%
    23:00 +14°C° 0 mm 1 mps 697 mmHg 51%

    24 Agosto, Sábado

    Tiempo Temperatura Precipitaciones Viento Presión Humedad
    00:00 +14°C° 0 mm 1 mps 697 mmHg 51%
    01:00 +13°C° 0 mm 1 mps 697 mmHg 52%
    02:00 +13°C° 0 mm 2 mps 696 mmHg 52%
    03:00 +13°C° 0 mm 2 mps 696 mmHg 52%
    04:00 +13°C° 0 mm 2 mps 696 mmHg 52%
    05:00 +13°C° 0 mm 2 mps 696 mmHg 51%
    06:00 +13°C° 0 mm 2 mps 697 mmHg 50%
    07:00 +14°C° 0 mm 2 mps 697 mmHg 49%
    08:00 +16°C° 0 mm 2 mps 697 mmHg 44%
    09:00 +18°C° 0 mm 3 mps 697 mmHg 39%
    10:00 +20°C° 0 mm 3 mps 698 mmHg 33%
    11:00 +21°C° 0 mm 3 mps 697 mmHg 31%
    12:00 +22°C° 0 mm 3 mps 697 mmHg 29%
    13:00 +24°C° 0 mm 3 mps 696 mmHg 27%
    14:00 +24°C° 0 mm 3 mps 696 mmHg 26%
    15:00 +24°C° 0 mm 3 mps 696 mmHg 26%
    16:00 +24°C° 0 mm 3 mps 696 mmHg 26%
    17:00 +23°C° 0 mm 2 mps 696 mmHg 30%
    18:00 +20°C° 0 mm 2 mps 697 mmHg 34%
    19:00 +19°C° 0 mm 1 mps 697 mmHg 38%
    20:00 +18°C° 0 mm 1 mps 697 mmHg 40%
    21:00 +18°C° 0 mm 1 mps 697 mmHg 42%
    22:00 +16°C° 0 mm 1 mps 697 mmHg 44%
    23:00 +16°C° 0 mm 1 mps 697 mmHg 46%

    25 Agosto, Domingo

    Tiempo Temperatura Precipitaciones Viento Presión Humedad
    00:00 +15°C° 0 mm 1 mps 697 mmHg 48%
    01:00 +15°C° 0 mm 2 mps 698 mmHg 50%
    02:00 +14°C° 0 mm 2 mps 698 mmHg 49%
    03:00 +14°C° 0 mm 2 mps 698 mmHg 49%
    04:00 +13°C° 0 mm 3 mps 698 mmHg 49%
    05:00 +13°C° 0 mm 3 mps 699 mmHg 50%
    06:00 +13°C° 0 mm 3 mps 700 mmHg 51%
    07:00 +13°C° 0 mm 3 mps 701 mmHg 52%
    08:00 +14°C° 0 mm 4 mps 701 mmHg 48%
    09:00 +17°C° 0 mm 4 mps 702 mmHg 44%
    10:00 +17°C° 0 mm 5 mps 702 mmHg 41%
    11:00 +19°C° 0 mm 4 mps 702 mmHg 38%
    12:00 +20°C° 0 mm 4 mps 702 mmHg 36%
    13:00 +21°C° 0 mm 3 mps 702 mmHg 34%
    14:00 +21°C° 0 mm 3 mps 702 mmHg 34%
    15:00 +21°C° 0 mm 3 mps 702 mmHg 34%
    16:00 +21°C° 0 mm 2 mps 701 mmHg 33%
    17:00 +19°C° 0 mm 2 mps 702 mmHg 37%
    18:00 +18°C° 0 mm 2 mps 702 mmHg 42%
    19:00 +16°C° 0 mm 2 mps 702 mmHg 46%
    20:00 +16°C° 0 mm 1 mps 702 mmHg 48%
    21:00 +15°C° 0 mm 1 mps 702 mmHg 50%
    22:00 +14°C° 0 mm 1 mps 702 mmHg 53%
    23:00 +14°C° 0 mm 1 mps 702 mmHg 53%

    26 Agosto, Lunes

    Tiempo Temperatura Precipitaciones Viento Presión Humedad
    00:00 +14°C° 0 mm 1 mps 702 mmHg 54%
    01:00 +14°C° 0 mm 1 mps 702 mmHg 54%
    02:00 +13°C° 0 mm 1 mps 702 mmHg 56%
    03:00 +13°C° 0 mm 1 mps 702 mmHg 57%
    04:00 +12°C° 0 mm 1 mps 701 mmHg 58%
    05:00 +13°C° 0 mm 1 mps 702 mmHg 55%
    06:00 +14°C° 0 mm 1 mps 702 mmHg 52%
    07:00 +14°C° 0 mm 1 mps 702 mmHg 49%
    08:00 +16°C° 0 mm 1 mps 702 mmHg 44%
    09:00 +18°C° 0 mm 2 mps 702 mmHg 39%
    10:00 +20°C° 0 mm 2 mps 702 mmHg 35%
    11:00 +21°C° 0 mm 3 mps 702 mmHg 32%
    12:00 +23°C° 0 mm 4 mps 702 mmHg 29%
    13:00 +25°C° 0 mm 5 mps 701 mmHg 27%
    14:00 +25°C° 0 mm 4 mps 701 mmHg 26%
    15:00 +26°C° 0 mm 4 mps 701 mmHg 26%
    16:00 +26°C° 0 mm 4 mps 701 mmHg 26%
    17:00 +24°C° 0 mm 3 mps 700 mmHg 30%
    18:00 +21°C° 0 mm 2 mps 700 mmHg 34%
    19:00 +20°C° 0 mm 1 mps 700 mmHg 38%
    20:00 +20°C° 0 mm 1 mps 700 mmHg 40%
    21:00 +19°C° 0 mm 1 mps 700 mmHg 42%
    22:00 +18°C° 0 mm 1 mps 700 mmHg 44%
    23:00 +18°C° 0 mm 1 mps 700 mmHg 49%
    Mostrar más